Weather History for Charlottesville, VA

Change the Weather History Date:

Saturday, January 4, 2014

  Actual Average Record
Temperature  
Mean Temperature 23 °F 35 °F  
Max Temperature 35 °F 44 °F 74 °F (1997)
Min Temperature 11 °F 26 °F 7 °F (1918)
Degree Days  
Heating Degree Days 42 30  
Month to date heating degree days 142 120  
Since 1 July heating degree days 1807 1856  
Cooling Degree Days 0 0  
Month to date cooling degree days 0 0  
Year to date cooling degree days 0 0  
Moisture  
Dew Point 9 °F    
Average Humidity 57    
Maximum Humidity 76    
Minimum Humidity 38    
Precipitation  
Precipitation 0.00 in 0.08 in 0.08 in (2005)
Month to date precipitation 0.17 0.35  
Year to date precipitation 0.17 0.35  
Sea Level Pressure  
Sea Level Pressure 30.41 in    
Wind  
Wind Speed 6 mph (SSW)    
Max Wind Speed 16 mph    
Max Gust Speed 19 mph    
Visibility 10 miles    
Events      
T = Trace of Precipitation, MM = Missing Value Source: NWS Daily Summary

Daily Weather History Graph

Daily Weather History Graph

Search for Another Location

Airport:

Trip Planner

Search our weather history database for the weather conditions in past years. The results will help you decide how hot, cold, wet, or windy it might be!

Date:

Astronomy

Jan. 04, 2014 Rise Set
Actual Time 7:30 AM EST 5:07 PM EST
Civil Twilight 7:01 AM EST 5:36 PM EST
Nautical Twilight 6:28 AM EST 6:09 PM EST
Astronomical Twilight 5:56 AM EST 6:41 PM EST
Moon 9:38 AM EST (1/4) 9:20 PM EST (1/4)
Length of Visible Light 10h 35m
Length of Day
9h 36m
Waxing Crescent, 15% of the Moon is Illuminated
Jan 4
Waxing Crescent
Jan 7
First Quarter
Jan 15
Full
Jan 24
Last Quarter
Jan 30
New

Hourly Weather History & Observations

Time (EST) Temp. Windchill Dew Point Humidity Pressure Visibility Wind Dir Wind Speed Gust Speed Precip Events Conditions
12:53 AM 15.1 °F - 3.9 °F 61% 30.48 in 10.0 mi Calm Calm - N/A   Clear
1:53 AM 14.0 °F - 5.0 °F 67% 30.49 in 10.0 mi Calm Calm - N/A   Clear
2:53 AM 12.0 °F - 5.0 °F 73% 30.49 in 10.0 mi Calm Calm - N/A   Clear
3:53 AM 14.0 °F - 6.1 °F 71% 30.48 in 10.0 mi Calm Calm - N/A   Clear
4:53 AM 12.0 °F - 7.0 °F 80% 30.49 in 10.0 mi Calm Calm - N/A   Clear
5:53 AM 12.9 °F - 5.0 °F 71% 30.50 in 10.0 mi Calm Calm - N/A   Clear
6:53 AM 14.0 °F 5.1 °F 6.1 °F 71% 30.51 in 10.0 mi SSW 5.8 mph - N/A   Clear
7:53 AM 14.0 °F 3.9 °F 6.1 °F 71% 30.52 in 10.0 mi SSW 6.9 mph - N/A   Clear
8:53 AM 19.0 °F 9.0 °F 7.0 °F 59% 30.51 in 10.0 mi SSW 8.1 mph - N/A   Clear
9:53 AM 23.0 °F 10.6 °F 7.0 °F 50% 30.50 in 10.0 mi South 13.8 mph - N/A   Clear
10:53 AM 25.0 °F 15.5 °F 10.0 °F 53% 30.46 in 10.0 mi South 9.2 mph - N/A   Clear
11:53 AM 28.0 °F 19.3 °F 10.0 °F 47% 30.41 in 10.0 mi SSW 9.2 mph - N/A   Clear
12:53 PM 30.9 °F 23.5 °F 10.9 °F 43% 30.38 in 10.0 mi South 8.1 mph - N/A   Clear
1:53 PM 32.0 °F 23.6 °F 10.9 °F 42% 30.36 in 10.0 mi SSW 10.4 mph - N/A   Clear
2:53 PM 34.0 °F 25.5 °F 10.9 °F 38% 30.35 in 10.0 mi SSW 11.5 mph - N/A   Clear
3:53 PM 35.1 °F 26.4 °F 12.0 °F 39% 30.35 in 10.0 mi South 12.7 mph - N/A   Clear
4:53 PM 32.0 °F 24.8 °F 12.0 °F 44% 30.34 in 10.0 mi SSW 8.1 mph - N/A   Clear
5:53 PM 30.9 °F 25.2 °F 10.9 °F 43% 30.32 in 10.0 mi SSW 5.8 mph - N/A   Clear
6:53 PM 28.0 °F 19.3 °F 10.9 °F 49% 30.32 in 10.0 mi SSW 9.2 mph - N/A   Clear
7:53 PM 28.9 °F 22.8 °F 10.9 °F 47% 30.33 in 10.0 mi SSW 5.8 mph - N/A   Clear
8:53 PM 30.9 °F 27.5 °F 9.0 °F 40% 30.32 in 10.0 mi SW 3.5 mph - N/A   Clear
9:53 PM 28.0 °F 21.7 °F 12.0 °F 51% 30.30 in 10.0 mi SW 5.8 mph - N/A   Clear
10:53 PM 30.9 °F 25.2 °F 14.0 °F 50% 30.28 in 10.0 mi SSW 5.8 mph - N/A   Overcast
11:53 PM 32.0 °F 24.8 °F 16.0 °F 52% 30.26 in 10.0 mi SSW 8.1 mph - N/A   Overcast